| time (UTC) | temp F | wind direction | speed knots | gust knots | rain 1hr in | rain 24hr in | rain mn in | humidity % | barometer mb |
| 20260508033507 | 44 | 359 | 0.0 | 0.9 | 0.00 | 0.12 | 0.12 | 68 | 1008.1 |
| 20260508033023 | 44 | 359 | 0.0 | 0.9 | 0.00 | 0.12 | 0.12 | 65 | 1008.0 |
| 20260508032509 | 44 | 359 | 0.0 | 0.9 | 0.00 | 0.12 | 0.12 | 63 | 1008.0 |
| 20260508032008 | 44 | 360 | 0.0 | 0.9 | 0.00 | 0.13 | 0.12 | 64 | 1008.0 |
| 20260508031529 | 45 | 360 | 0.0 | 0.9 | 0.00 | 0.13 | 0.12 | 60 | 1008.0 |
| 20260508031008 | 45 | 360 | 0.0 | 0.0 | 0.00 | 0.13 | 0.12 | 60 | 1008.1 |
| 20260508030503 | 45 | 360 | 0.0 | 0.0 | 0.00 | 0.13 | 0.12 | 56 | 1008.1 |
| 20260508030008 | 44 | 359 | 0.0 | 0.0 | 0.00 | 0.13 | 0.12 | 57 | 1008.1 |
| 20260508025504 | 44 | 360 | 0.0 | 0.0 | 0.00 | 0.13 | 0.12 | 60 | 1008.1 |
| 20260508025003 | 45 | 359 | 0.0 | 0.0 | 0.00 | 0.13 | 0.12 | 64 | 1008.1 |
| 20260508024509 | 45 | 360 | 0.0 | 0.9 | 0.00 | 0.13 | 0.12 | 65 | 1008.0 |
| 20260508024007 | 45 | 360 | 0.0 | 0.9 | 0.00 | 0.13 | 0.12 | 65 | 1008.0 |
| 20260508023508 | 45 | 359 | 0.0 | 0.9 | 0.00 | 0.13 | 0.12 | 64 | 1008.0 |
| 20260508023026 | 46 | 360 | 0.0 | 0.9 | 0.00 | 0.13 | 0.12 | 60 | 1007.9 |
| 20260508022506 | 46 | 360 | 0.0 | 0.9 | 0.00 | 0.14 | 0.12 | 57 | 1007.9 |
| 20260508022008 | 46 | 360 | 0.0 | 0.9 | 0.00 | 0.14 | 0.12 | 59 | 1007.9 |
| 20260508021522 | 46 | 360 | 0.0 | 0.9 | 0.00 | 0.14 | 0.12 | 57 | 1008.0 |
| 20260508021015 | 46 | 360 | 0.0 | 0.9 | 0.00 | 0.14 | 0.12 | 58 | 1007.9 |
| 20260508020507 | 46 | 360 | 0.0 | 0.9 | 0.00 | 0.14 | 0.12 | 59 | 1007.7 |
| 20260508020025 | 46 | 360 | 0.0 | 0.9 | 0.00 | 0.14 | 0.12 | 60 | 1007.7 |
| 20260508015510 | 46 | 360 | 0.0 | 0.9 | 0.00 | 0.14 | 0.12 | 57 | 1007.7 |
| 20260508015005 | 47 | 360 | 0.0 | 0.9 | 0.00 | 0.14 | 0.12 | 60 | 1007.7 |
| 20260508014518 | 47 | 360 | 0.0 | 0.9 | 0.00 | 0.14 | 0.12 | 58 | 1007.4 |
| 20260508014007 | 47 | 360 | 0.0 | 0.9 | 0.00 | 0.14 | 0.12 | 59 | 1007.2 |
| 20260508013506 | 47 | 360 | 0.0 | 0.9 | 0.00 | 0.14 | 0.12 | 58 | 1007.3 |
| 20260508013014 | 48 | 360 | 0.0 | 0.0 | 0.00 | 0.15 | 0.12 | 59 | 1007.4 |
| 20260508012506 | 48 | 1 | 0.0 | 0.9 | 0.00 | 0.15 | 0.12 | 55 | 1007.3 |
| 20260508012006 | 48 | 360 | 0.0 | 0.9 | 0.00 | 0.15 | 0.12 | 55 | 1007.3 |
| 20260508011520 | 49 | 360 | 0.0 | 0.0 | 0.00 | 0.15 | 0.12 | 54 | 1007.2 |
| 20260508011007 | 49 | 360 | 0.0 | 0.9 | 0.00 | 0.15 | 0.12 | 54 | 1007.2 |
| 20260508010508 | 49 | 360 | 0.0 | 0.9 | 0.00 | 0.16 | 0.12 | 53 | 1007.2 |
| 20260508010027 | 49 | 360 | 0.0 | 0.9 | 0.00 | 0.16 | 0.12 | 55 | 1007.1 |
| 20260508005515 | 49 | 360 | 0.0 | 0.9 | 0.00 | 0.16 | 0.12 | 55 | 1007.0 |
| 20260508005009 | 50 | 360 | 0.0 | 0.9 | 0.00 | 0.16 | 0.12 | 53 | 1006.9 |
| 20260508004528 | 50 | 1 | 0.0 | 0.9 | 0.00 | 0.16 | 0.12 | 53 | 1006.8 |
| 20260508004004 | 50 | 360 | 0.0 | 0.9 | 0.00 | 0.16 | 0.12 | 55 | 1006.7 |
| 20260508003505 | 50 | 360 | 0.0 | 0.9 | 0.00 | 0.16 | 0.12 | 54 | 1006.6 |
| 20260508003048 | 51 | 360 | 0.0 | 0.9 | 0.00 | 0.17 | 0.12 | 52 | 1006.5 |
| 20260508002508 | 51 | 360 | 0.0 | 0.9 | 0.00 | 0.17 | 0.12 | 50 | 1006.4 |
| 20260508002010 | 52 | 360 | 0.0 | 0.9 | 0.00 | 0.17 | 0.12 | 50 | 1006.4 |
| 20260508001514 | 52 | 360 | 0.0 | 0.9 | 0.00 | 0.17 | 0.12 | 48 | 1006.4 |
| 20260508001006 | 52 | 360 | 0.0 | 0.9 | 0.00 | 0.17 | 0.12 | 50 | 1006.3 |
| 20260508000506 | 53 | 360 | 0.0 | 0.9 | 0.00 | 0.17 | 0.12 | 47 | 1006.2 |
| 20260508000022 | 53 | 1 | 0.0 | 0.9 | 0.00 | 0.17 | 0.12 | 49 | 1006.1 |
| 20260507235514 | 54 | 360 | 0.0 | 0.9 | 0.00 | 0.17 | 0.12 | 48 | 1006.1 |
| 20260507235010 | 54 | 360 | 0.0 | 0.9 | 0.00 | 0.17 | 0.12 | 46 | 1006.0 |
| 20260507234522 | 54 | 359 | 0.0 | 0.9 | 0.00 | 0.17 | 0.12 | 49 | 1006.0 |
| 20260507234010 | 55 | 359 | 0.0 | 0.9 | 0.00 | 0.17 | 0.12 | 45 | 1005.9 |
| 20260507233511 | 55 | 359 | 0.0 | 0.9 | 0.00 | 0.17 | 0.12 | 45 | 1005.9 |
| 20260507233033 | 55 | 359 | 0.0 | 0.9 | 0.00 | 0.17 | 0.12 | 45 | 1005.8 |
| 20260507232505 | 56 | 359 | 0.0 | 2.6 | 0.00 | 0.17 | 0.12 | 43 | 1005.7 |
| 20260507232006 | 56 | 359 | 0.0 | 2.6 | 0.00 | 0.17 | 0.12 | 41 | 1005.6 |
| 20260507231512 | 56 | 340 | 0.0 | 0.9 | 0.00 | 0.17 | 0.12 | 40 | 1005.5 |
| 20260507231009 | 57 | 340 | 0.0 | 0.9 | 0.00 | 0.17 | 0.12 | 43 | 1005.4 |
| 20260507230512 | 57 | 340 | 0.0 | 1.7 | 0.00 | 0.17 | 0.12 | 41 | 1005.3 |
| 20260507230022 | 57 | 340 | 0.0 | 1.7 | 0.00 | 0.17 | 0.12 | 38 | 1005.3 |
| 20260507225514 | 57 | 322 | 0.9 | 1.7 | 0.00 | 0.17 | 0.12 | 42 | 1005.3 |
| 20260507225009 | 58 | 288 | 0.9 | 3.5 | 0.00 | 0.17 | 0.12 | 41 | 1005.2 |
| 20260507224523 | 58 | 150 | 0.0 | 3.5 | 0.00 | 0.17 | 0.12 | 42 | 1005.1 |
| 20260507224007 | 58 | 147 | 0.0 | 0.9 | 0.00 | 0.17 | 0.12 | 37 | 1005.0 |
| 20260507223511 | 58 | 20 | 0.0 | 0.9 | 0.00 | 0.17 | 0.12 | 42 | 1005.0 |
| 20260507223026 | 58 | 320 | 0.0 | 1.7 | 0.00 | 0.17 | 0.12 | 37 | 1005.0 |
| 20260507222512 | 58 | 288 | 0.0 | 2.6 | 0.00 | 0.18 | 0.12 | 37 | 1004.9 |
| 20260507222010 | 59 | 302 | 0.0 | 2.6 | 0.00 | 0.18 | 0.12 | 38 | 1004.9 |
| 20260507221528 | 60 | 354 | 0.9 | 2.6 | 0.00 | 0.19 | 0.12 | 35 | 1004.9 |
| 20260507221009 | 60 | 341 | 0.9 | 3.5 | 0.00 | 0.19 | 0.12 | 35 | 1004.8 |
| 20260507220511 | 60 | 307 | 0.9 | 3.5 | 0.00 | 0.20 | 0.12 | 32 | 1004.7 |
| 20260507220017 | 60 | 321 | 0.9 | 3.5 | 0.00 | 0.20 | 0.12 | 36 | 1004.6 |
| 20260507215507 | 60 | 257 | 0.9 | 6.1 | 0.00 | 0.20 | 0.12 | 32 | 1004.7 |
| 20260507215008 | 59 | 297 | 0.9 | 6.1 | 0.00 | 0.20 | 0.12 | 35 | 1004.7 |
| 20260507214504 | 59 | 326 | 0.9 | 1.7 | 0.00 | 0.20 | 0.12 | 40 | 1004.8 |
| 20260507214004 | 59 | 259 | 0.0 | 3.5 | 0.00 | 0.20 | 0.12 | 40 | 1004.8 |
| 20260507213504 | 59 | 282 | 1.7 | 3.5 | 0.00 | 0.20 | 0.12 | 34 | 1004.8 |
| 20260507213004 | 60 | 283 | 0.9 | 4.3 | 0.00 | 0.21 | 0.12 | 33 | 1004.8 |
| 20260507212504 | 61 | 300 | 1.7 | 4.3 | 0.00 | 0.21 | 0.12 | 32 | 1004.8 |
| 20260507212004 | 61 | 321 | 0.0 | 2.6 | 0.00 | 0.21 | 0.12 | 33 | 1004.7 |
| 20260507211508 | 61 | 233 | 0.9 | 3.5 | 0.00 | 0.22 | 0.12 | 31 | 1004.7 |
| 20260507211003 | 61 | 240 | 0.9 | 3.5 | 0.00 | 0.24 | 0.12 | 39 | 1004.7 |
| 20260507210503 | 61 | 105 | 0.0 | 4.3 | 0.00 | 0.25 | 0.12 | 30 | 1004.7 |
| 20260507210014 | 61 | 211 | 0.9 | 4.3 | 0.00 | 0.25 | 0.12 | 32 | 1004.6 |
| 20260507205507 | 61 | 295 | 1.7 | 3.5 | 0.00 | 0.26 | 0.12 | 30 | 1004.6 |
| 20260507205006 | 61 | 354 | 0.9 | 3.5 | 0.00 | 0.27 | 0.12 | 31 | 1004.4 |
| 20260507204505 | 61 | 317 | 0.9 | 2.6 | 0.00 | 0.28 | 0.12 | 33 | 1004.5 |
| 20260507204003 | 62 | 340 | 1.7 | 3.5 | 0.00 | 0.29 | 0.12 | 32 | 1004.4 |
| 20260507203503 | 61 | 347 | 0.9 | 3.5 | 0.00 | 0.29 | 0.12 | 31 | 1004.3 |
| 20260507203011 | 61 | 219 | 0.9 | 3.5 | 0.00 | 0.29 | 0.12 | 30 | 1004.3 |
| 20260507202506 | 62 | 269 | 0.9 | 5.2 | 0.00 | 0.30 | 0.12 | 29 | 1004.4 |
| 20260507202002 | 62 | 249 | 1.7 | 5.2 | 0.00 | 0.30 | 0.12 | 31 | 1004.5 |
| 20260507201506 | 62 | 320 | 1.7 | 5.2 | 0.00 | 0.30 | 0.12 | 30 | 1004.3 |
| 20260507201004 | 62 | 265 | 1.7 | 5.2 | 0.00 | 0.30 | 0.12 | 30 | 1004.3 |
| 20260507200504 | 62 | 276 | 1.7 | 5.2 | 0.00 | 0.30 | 0.12 | 27 | 1004.3 |
| 20260507200010 | 63 | 251 | 1.7 | 5.2 | 0.00 | 0.31 | 0.12 | 30 | 1004.4 |
| 20260507195506 | 63 | 313 | 0.9 | 4.3 | 0.00 | 0.32 | 0.12 | 31 | 1004.3 |
| 20260507195007 | 64 | 321 | 1.7 | 4.3 | 0.00 | 0.33 | 0.12 | 30 | 1004.4 |
| 20260507194518 | 63 | 226 | 1.7 | 5.2 | 0.00 | 0.35 | 0.12 | 28 | 1004.3 |
| 20260507194009 | 63 | 276 | 1.7 | 5.2 | 0.00 | 0.35 | 0.12 | 30 | 1004.3 |
| 20260507193507 | 63 | 158 | 1.7 | 4.3 | 0.00 | 0.37 | 0.12 | 30 | 1004.4 |
| 20260507193005 | 63 | 319 | 2.6 | 4.3 | 0.00 | 0.38 | 0.12 | 29 | 1004.5 |
| 20260507192503 | 63 | 302 | 1.7 | 4.3 | 0.00 | 0.38 | 0.12 | 31 | 1004.6 |
| 20260507192003 | 63 | 321 | 1.7 | 4.3 | 0.00 | 0.39 | 0.12 | 31 | 1004.7 |
| 20260507191508 | 63 | 246 | 1.7 | 7.0 | 0.00 | 0.40 | 0.12 | 35 | 1004.7 |
| 20260507191004 | 63 | 287 | 2.6 | 7.0 | 0.00 | 0.41 | 0.12 | 36 | 1004.7 |
| 20260507190504 | 63 | 265 | 3.5 | 7.0 | 0.00 | 0.42 | 0.12 | 36 | 1004.7 |
| 20260507190008 | 63 | 234 | 0.9 | 5.2 | 0.00 | 0.43 | 0.12 | 35 | 1004.6 |
| 20260507185507 | 63 | 323 | 1.7 | 4.3 | 0.00 | 0.44 | 0.12 | 36 | 1004.7 |
| 20260507185003 | 63 | 323 | 1.7 | 4.3 | 0.00 | 0.45 | 0.12 | 38 | 1004.7 |
| 20260507184517 | 63 | 293 | 2.6 | 4.3 | 0.00 | 0.46 | 0.12 | 39 | 1004.7 |
| 20260507184007 | 63 | 288 | 1.7 | 5.2 | 0.00 | 0.47 | 0.12 | 42 | 1004.7 |
| 20260507183507 | 62 | 332 | 1.7 | 5.2 | 0.00 | 0.47 | 0.12 | 42 | 1004.7 |
| 20260507183022 | 63 | 8 | 1.7 | 5.2 | 0.00 | 0.47 | 0.12 | 43 | 1004.7 |
| 20260507182509 | 63 | 226 | 1.7 | 5.2 | 0.00 | 0.47 | 0.12 | 44 | 1004.8 |
| 20260507182001 | 62 | 335 | 1.7 | 3.5 | 0.00 | 0.47 | 0.12 | 47 | 1004.7 |
| 20260507181505 | 61 | 300 | 1.7 | 3.5 | 0.00 | 0.47 | 0.12 | 44 | 1004.8 |
| 20260507181003 | 62 | 300 | 0.9 | 5.2 | 0.00 | 0.47 | 0.12 | 41 | 1004.7 |
| 20260507180504 | 62 | 309 | 1.7 | 5.2 | 0.00 | 0.47 | 0.12 | 46 | 1004.8 |
| 20260507180011 | 63 | 282 | 0.9 | 3.5 | 0.00 | 0.47 | 0.12 | 41 | 1004.8 |
| 20260507175505 | 62 | 260 | 0.9 | 4.3 | 0.00 | 0.47 | 0.12 | 43 | 1004.9 |
| 20260507175004 | 62 | 261 | 1.7 | 4.3 | 0.00 | 0.47 | 0.12 | 44 | 1005.0 |
| 20260507174511 | 62 | 253 | 1.7 | 3.5 | 0.00 | 0.47 | 0.12 | 46 | 1005.0 |
| 20260507174006 | 62 | 321 | 0.9 | 4.3 | 0.00 | 0.47 | 0.12 | 46 | 1005.0 |
| 20260507173506 | 61 | 281 | 1.7 | 4.3 | 0.00 | 0.47 | 0.12 | 46 | 1005.1 |
| 20260507173016 | 59 | 319 | 1.7 | 3.5 | 0.00 | 0.47 | 0.12 | 52 | 1005.3 |
| 20260507172509 | 59 | 284 | 1.7 | 3.5 | 0.00 | 0.47 | 0.12 | 50 | 1005.3 |
| 20260507172012 | 59 | 243 | 0.0 | 1.7 | 0.00 | 0.47 | 0.12 | 58 | 1005.3 |
| 20260507171521 | 59 | 352 | 0.9 | 3.5 | 0.00 | 0.47 | 0.12 | 59 | 1005.3 |
| 20260507171008 | 58 | 311 | 0.9 | 3.5 | 0.00 | 0.47 | 0.12 | 60 | 1005.4 |
| 20260507170504 | 59 | 304 | 1.7 | 3.5 | 0.00 | 0.47 | 0.12 | 59 | 1005.4 |
| 20260507170005 | 59 | 223 | 0.9 | 4.3 | 0.00 | 0.47 | 0.12 | 58 | 1005.3 |
| 20260507165502 | 60 | 259 | 1.7 | 4.3 | 0.00 | 0.47 | 0.12 | 56 | 1005.5 |
| 20260507165003 | 61 | 226 | 1.7 | 6.1 | 0.00 | 0.47 | 0.12 | 55 | 1005.5 |
| 20260507164510 | 61 | 212 | 1.7 | 6.1 | 0.00 | 0.47 | 0.12 | 46 | 1005.4 |
| 20260507164005 | 62 | 168 | 1.7 | 3.5 | 0.00 | 0.47 | 0.12 | 46 | 1005.4 |
| 20260507163507 | 62 | 311 | 1.7 | 3.5 | 0.00 | 0.47 | 0.12 | 47 | 1005.4 |
| 20260507163019 | 62 | 330 | 1.7 | 3.5 | 0.00 | 0.47 | 0.12 | 48 | 1005.4 |
| 20260507162507 | 61 | 255 | 0.9 | 2.6 | 0.00 | 0.47 | 0.12 | 49 | 1005.4 |
| 20260507162011 | 60 | 339 | 1.7 | 3.5 | 0.00 | 0.47 | 0.12 | 48 | 1005.5 |
| 20260507161518 | 60 | 317 | 1.7 | 3.5 | 0.00 | 0.47 | 0.12 | 49 | 1005.6 |
| 20260507161007 | 60 | 279 | 0.9 | 3.5 | 0.00 | 0.47 | 0.12 | 50 | 1005.6 |
| 20260507160509 | 60 | 12 | 0.9 | 3.5 | 0.00 | 0.47 | 0.12 | 47 | 1005.7 |
| 20260507160022 | 61 | 214 | 1.7 | 3.5 | 0.00 | 0.47 | 0.12 | 45 | 1005.8 |
| 20260507155507 | 62 | 356 | 1.7 | 3.5 | 0.00 | 0.47 | 0.12 | 49 | 1005.9 |
| 20260507155003 | 61 | 269 | 0.9 | 3.5 | 0.00 | 0.47 | 0.12 | 46 | 1006.0 |
| 20260507154508 | 61 | 266 | 1.7 | 3.5 | 0.00 | 0.47 | 0.12 | 52 | 1006.1 |
| 20260507154009 | 61 | 200 | 1.7 | 3.5 | 0.00 | 0.47 | 0.12 | 51 | 1006.2 |
| 20260507153506 | 60 | 278 | 0.9 | 2.6 | 0.00 | 0.47 | 0.12 | 57 | 1006.3 |
| 20260507153009 | 60 | 342 | 0.9 | 3.5 | 0.00 | 0.47 | 0.12 | 56 | 1006.4 |
| 20260507152506 | 60 | 280 | 1.7 | 3.5 | 0.00 | 0.47 | 0.12 | 54 | 1006.4 |
| 20260507152009 | 60 | 259 | 0.9 | 3.5 | 0.00 | 0.47 | 0.12 | 54 | 1006.2 |
| 20260507151517 | 60 | 250 | 0.9 | 3.5 | 0.00 | 0.47 | 0.12 | 56 | 1006.3 |
| 20260507151008 | 59 | 208 | 0.9 | 2.6 | 0.00 | 0.47 | 0.12 | 57 | 1006.2 |
| 20260507150513 | 59 | 308 | 0.9 | 2.6 | 0.00 | 0.47 | 0.12 | 58 | 1006.3 |
| 20260507150022 | 58 | 316 | 0.0 | 2.6 | 0.00 | 0.47 | 0.12 | 59 | 1006.3 |
| 20260507145512 | 58 | 285 | 0.0 | 2.6 | 0.00 | 0.47 | 0.12 | 58 | 1006.4 |
| 20260507145007 | 57 | 352 | 0.9 | 2.6 | 0.00 | 0.47 | 0.12 | 61 | 1006.4 |
| 20260507144525 | 57 | 49 | 0.9 | 2.6 | 0.00 | 0.47 | 0.12 | 62 | 1006.5 |
| 20260507144004 | 57 | 316 | 0.9 | 2.6 | 0.00 | 0.47 | 0.12 | 62 | 1006.4 |
| 20260507143503 | 56 | 284 | 0.9 | 3.5 | 0.00 | 0.47 | 0.12 | 63 | 1006.5 |
| 20260507143008 | 56 | 239 | 0.9 | 3.5 | 0.00 | 0.47 | 0.12 | 65 | 1006.5 |
| 20260507142505 | 56 | 321 | 0.9 | 3.5 | 0.00 | 0.47 | 0.12 | 67 | 1006.7 |
| 20260507142009 | 55 | 309 | 1.7 | 3.5 | 0.00 | 0.47 | 0.12 | 62 | 1006.8 |
| 20260507141512 | 55 | 61 | 0.9 | 2.6 | 0.00 | 0.47 | 0.12 | 67 | 1006.9 |
| 20260507141008 | 55 | 348 | 0.0 | 3.5 | 0.00 | 0.47 | 0.12 | 67 | 1006.9 |
| 20260507140507 | 55 | 309 | 0.9 | 3.5 | 0.00 | 0.47 | 0.12 | 67 | 1006.9 |
| 20260507140026 | 55 | 248 | 0.0 | 2.6 | 0.00 | 0.47 | 0.12 | 72 | 1006.8 |
| 20260507135508 | 54 | 262 | 0.0 | 2.6 | 0.00 | 0.47 | 0.12 | 70 | 1006.8 |
| 20260507135007 | 54 | 342 | 0.0 | 2.6 | 0.00 | 0.47 | 0.12 | 68 | 1006.9 |
| 20260507134526 | 53 | 39 | 0.9 | 2.6 | 0.00 | 0.47 | 0.12 | 70 | 1007.0 |
| 20260507134009 | 53 | 9 | 1.7 | 2.6 | 0.00 | 0.47 | 0.12 | 73 | 1007.0 |
| 20260507133513 | 53 | 337 | 0.9 | 2.6 | 0.00 | 0.47 | 0.12 | 71 | 1007.0 |
| 20260507133008 | 53 | 343 | 0.9 | 2.6 | 0.00 | 0.47 | 0.12 | 72 | 1007.1 |
| 20260507132506 | 52 | 309 | 0.9 | 2.6 | 0.00 | 0.47 | 0.12 | 73 | 1007.0 |
| 20260507132007 | 52 | 78 | 0.0 | 1.7 | 0.00 | 0.47 | 0.12 | 78 | 1007.0 |
| 20260507131512 | 51 | 270 | 0.0 | 1.7 | 0.00 | 0.47 | 0.12 | 79 | 1007.1 |
| 20260507131009 | 51 | 343 | 0.9 | 1.7 | 0.00 | 0.47 | 0.12 | 76 | 1007.1 |
| 20260507130506 | 51 | 320 | 0.0 | 1.7 | 0.00 | 0.47 | 0.12 | 80 | 1007.0 |
| 20260507130017 | 51 | 320 | 0.0 | 1.7 | 0.00 | 0.47 | 0.12 | 80 | 1007.0 |
| 20260507125510 | 50 | 331 | 0.9 | 1.7 | 0.00 | 0.47 | 0.12 | 81 | 1007.2 |
| 20260507125008 | 50 | 354 | 0.0 | 1.7 | 0.00 | 0.47 | 0.12 | 83 | 1007.1 |
| 20260507124512 | 50 | 354 | 0.9 | 2.6 | 0.00 | 0.47 | 0.12 | 85 | 1007.2 |
| 20260507124007 | 50 | 2 | 0.0 | 2.6 | 0.00 | 0.47 | 0.12 | 86 | 1007.2 |
| 20260507123505 | 49 | 325 | 0.0 | 2.6 | 0.00 | 0.47 | 0.12 | 83 | 1007.2 |
| 20260507123004 | 49 | 323 | 0.9 | 2.6 | 0.00 | 0.47 | 0.12 | 85 | 1007.1 |
| 20260507122507 | 49 | 319 | 0.0 | 1.7 | 0.00 | 0.47 | 0.12 | 88 | 1007.1 |
| 20260507122006 | 49 | 319 | 0.9 | 2.6 | 0.00 | 0.47 | 0.12 | 86 | 1007.1 |
| 20260507121509 | 48 | 221 | 0.9 | 2.6 | 0.00 | 0.47 | 0.12 | 84 | 1007.0 |
| 20260507121008 | 48 | 293 | 0.0 | 1.7 | 0.00 | 0.47 | 0.12 | 86 | 1007.1 |
| 20260507120508 | 48 | 316 | 0.0 | 1.7 | 0.00 | 0.47 | 0.12 | 87 | 1007.0 |
| 20260507120003 | 47 | 311 | 0.9 | 1.7 | 0.00 | 0.47 | 0.12 | 89 | 1007.1 |
| 20260507115506 | 47 | 274 | 0.0 | 0.9 | 0.00 | 0.47 | 0.12 | 92 | 1007.1 |
| 20260507115006 | 47 | 274 | 0.0 | 0.9 | 0.00 | 0.47 | 0.12 | 93 | 1007.0 |
| 20260507114507 | 47 | 264 | 0.0 | 0.9 | 0.00 | 0.47 | 0.12 | 94 | 1007.1 |
| 20260507114004 | 46 | 265 | 0.0 | 0.9 | 0.00 | 0.47 | 0.12 | 94 | 1006.9 |
| 20260507113502 | 45 | 264 | 0.0 | 0.9 | 0.00 | 0.47 | 0.12 | 94 | 1007.0 |
| 20260507113006 | 45 | 264 | 0.0 | 0.0 | 0.00 | 0.47 | 0.12 | 94 | 1007.0 |
| 20260507112506 | 45 | 264 | 0.0 | 0.0 | 0.00 | 0.47 | 0.12 | 94 | 1007.2 |
| 20260507112006 | 45 | 264 | 0.0 | 0.9 | 0.00 | 0.47 | 0.12 | 94 | 1007.5 |
| 20260507111510 | 45 | 265 | 0.0 | 0.9 | 0.00 | 0.47 | 0.12 | 94 | 1007.5 |
| 20260507111003 | 45 | 265 | 0.0 | 0.9 | 0.00 | 0.47 | 0.12 | 95 | 1007.6 |
| 20260507110507 | 45 | 264 | 0.0 | 0.9 | 0.00 | 0.47 | 0.12 | 95 | 1007.9 |
| 20260507110015 | 45 | 264 | 0.0 | 0.9 | 0.00 | 0.47 | 0.12 | 94 | 1007.2 |
| 20260507105506 | 45 | 264 | 0.0 | 0.9 | 0.00 | 0.47 | 0.12 | 95 | 1007.4 |
| 20260507105007 | 45 | 264 | 0.0 | 0.9 | 0.00 | 0.47 | 0.12 | 95 | 1007.6 |
| 20260507104503 | 45 | 264 | 0.0 | 0.9 | 0.00 | 0.47 | 0.12 | 95 | 1007.9 |
| 20260507104003 | 44 | 264 | 0.0 | 0.9 | 0.00 | 0.47 | 0.12 | 94 | 1007.8 |
| 20260507103502 | 44 | 264 | 0.0 | 0.9 | 0.00 | 0.47 | 0.12 | 94 | 1007.6 |
| 20260507103007 | 44 | 264 | 0.0 | 0.9 | 0.00 | 0.47 | 0.12 | 94 | 1007.4 |
| 20260507102504 | 44 | 264 | 0.0 | 0.9 | 0.00 | 0.47 | 0.12 | 94 | 1008.0 |
| 20260507102006 | 44 | 260 | 0.0 | 0.9 | 0.00 | 0.47 | 0.12 | 94 | 1007.2 |
| 20260507101508 | 44 | 260 | 0.0 | 0.9 | 0.00 | 0.47 | 0.12 | 94 | 1007.5 |
| 20260507101003 | 44 | 260 | 0.0 | 0.9 | 0.00 | 0.47 | 0.12 | 94 | 1007.5 |
| 20260507100503 | 44 | 260 | 0.0 | 0.9 | 0.00 | 0.47 | 0.12 | 94 | 1007.5 |
| 20260507100025 | 44 | 260 | 0.0 | 0.9 | 0.00 | 0.47 | 0.12 | 94 | 1007.6 |
| 20260507095507 | 44 | 260 | 0.0 | 0.9 | 0.00 | 0.47 | 0.12 | 94 | 1007.4 |
| 20260507095012 | 44 | 260 | 0.0 | 0.9 | 0.00 | 0.47 | 0.12 | 94 | 1007.0 |
| 20260507094517 | 44 | 260 | 0.0 | 0.9 | 0.00 | 0.47 | 0.12 | 94 | 1007.0 |
| 20260507094007 | 44 | 259 | 0.0 | 0.9 | 0.00 | 0.47 | 0.12 | 94 | 1006.8 |
| 20260507093506 | 44 | 260 | 0.0 | 0.9 | 0.00 | 0.47 | 0.12 | 94 | 1007.2 |
| 20260507093003 | 45 | 260 | 0.0 | 0.9 | 0.00 | 0.47 | 0.12 | 94 | 1006.8 |
| 20260507092505 | 45 | 260 | 0.0 | 0.9 | 0.00 | 0.47 | 0.12 | 94 | 1006.5 |
| 20260507092002 | 45 | 260 | 0.0 | 0.9 | 0.00 | 0.47 | 0.12 | 94 | 1006.6 |
| 20260507091514 | 45 | 260 | 0.0 | 0.9 | 0.00 | 0.47 | 0.12 | 94 | 1006.8 |
| 20260507091003 | 45 | 260 | 0.0 | 0.9 | 0.00 | 0.47 | 0.12 | 94 | 1006.9 |
| 20260507090503 | 45 | 260 | 0.0 | 0.9 | 0.00 | 0.47 | 0.12 | 94 | 1007.2 |
| 20260507090008 | 45 | 260 | 0.0 | 0.9 | 0.00 | 0.47 | 0.12 | 94 | 1007.1 |
| 20260507085503 | 46 | 260 | 0.0 | 0.9 | 0.00 | 0.47 | 0.12 | 94 | 1007.0 |
| 20260507085004 | 46 | 260 | 0.0 | 0.9 | 0.00 | 0.47 | 0.12 | 94 | 1006.9 |
| 20260507084514 | 46 | 260 | 0.0 | 0.9 | 0.00 | 0.47 | 0.12 | 94 | 1007.4 |
| 20260507084004 | 46 | 261 | 0.0 | 0.9 | 0.00 | 0.47 | 0.12 | 94 | 1007.3 |
| 20260507083508 | 46 | 262 | 0.0 | 0.9 | 0.00 | 0.47 | 0.12 | 94 | 1007.1 |
| 20260507083021 | 46 | 276 | 0.0 | 0.9 | 0.00 | 0.47 | 0.12 | 94 | 1006.7 |
| 20260507082508 | 46 | 274 | 0.0 | 0.9 | 0.00 | 0.47 | 0.12 | 94 | 1006.4 |
| 20260507082003 | 46 | 274 | 0.0 | 0.9 | 0.00 | 0.47 | 0.12 | 94 | 1006.6 |
| 20260507081504 | 47 | 271 | 0.0 | 0.9 | 0.00 | 0.47 | 0.12 | 94 | 1006.9 |
| 20260507081003 | 47 | 271 | 0.0 | 0.9 | 0.00 | 0.47 | 0.12 | 94 | 1007.2 |
| 20260507080505 | 47 | 335 | 0.0 | 0.9 | 0.00 | 0.47 | 0.12 | 94 | 1006.7 |
| 20260507080008 | 47 | 335 | 0.0 | 0.9 | 0.00 | 0.47 | 0.12 | 94 | 1006.5 |
| 20260507075503 | 47 | 335 | 0.0 | 0.9 | 0.00 | 0.47 | 0.12 | 94 | 1006.3 |
| 20260507075009 | 47 | 335 | 0.0 | 0.9 | 0.00 | 0.47 | 0.12 | 94 | 1006.3 |
| 20260507074512 | 47 | 336 | 0.0 | 0.9 | 0.00 | 0.47 | 0.12 | 94 | 1006.0 |
| 20260507074003 | 48 | 266 | 0.0 | 0.9 | 0.00 | 0.47 | 0.12 | 94 | 1006.5 |
| 20260507073507 | 48 | 348 | 0.0 | 0.9 | 0.00 | 0.47 | 0.12 | 94 | 1006.3 |
| 20260507073014 | 48 | 277 | 0.0 | 0.9 | 0.00 | 0.47 | 0.12 | 94 | 1006.3 |
| 20260507072511 | 48 | 277 | 0.0 | 0.9 | 0.00 | 0.47 | 0.12 | 94 | 1006.2 |
| 20260507072009 | 48 | 277 | 0.0 | 0.9 | 0.00 | 0.47 | 0.12 | 94 | 1006.2 |
| 20260507071520 | 48 | 277 | 0.0 | 0.9 | 0.00 | 0.47 | 0.12 | 94 | 1006.3 |
| 20260507071012 | 48 | 277 | 0.0 | 0.9 | 0.00 | 0.47 | 0.12 | 94 | 1006.3 |
| 20260507070506 | 48 | 277 | 0.0 | 0.9 | 0.00 | 0.47 | 0.12 | 94 | 1006.0 |
| 20260507070008 | 48 | 277 | 0.0 | 0.9 | 0.00 | 0.47 | 0.12 | 94 | 1005.9 |
| 20260507065504 | 49 | 277 | 0.0 | 0.9 | 0.00 | 0.47 | 0.12 | 94 | 1006.0 |
| 20260507065004 | 49 | 277 | 0.0 | 0.9 | 0.00 | 0.47 | 0.12 | 95 | 1006.1 |
| 20260507064512 | 49 | 277 | 0.0 | 0.9 | 0.00 | 0.47 | 0.12 | 94 | 1005.9 |
| 20260507064006 | 49 | 277 | 0.0 | 0.0 | 0.00 | 0.47 | 0.12 | 94 | 1005.8 |
| 20260507063507 | 49 | 277 | 0.0 | 0.9 | 0.00 | 0.47 | 0.12 | 94 | 1005.8 |
| 20260507063012 | 49 | 277 | 0.0 | 0.9 | 0.00 | 0.47 | 0.12 | 94 | 1005.7 |
| 20260507062510 | 49 | 277 | 0.0 | 0.9 | 0.00 | 0.47 | 0.12 | 94 | 1005.8 |
| 20260507062011 | 49 | 277 | 0.0 | 0.9 | 0.01 | 0.47 | 0.12 | 94 | 1005.5 |
| 20260507061529 | 49 | 277 | 0.0 | 0.9 | 0.01 | 0.47 | 0.12 | 94 | 1005.5 |
| 20260507061008 | 50 | 277 | 0.0 | 0.9 | 0.01 | 0.47 | 0.12 | 95 | 1005.4 |
| 20260507060508 | 50 | 277 | 0.0 | 0.9 | 0.01 | 0.47 | 0.12 | 95 | 1005.5 |
| 20260507060029 | 50 | 277 | 0.0 | 0.9 | 0.01 | 0.47 | 0.12 | 94 | 1005.5 |
| 20260507055503 | 50 | 277 | 0.0 | 0.9 | 0.01 | 0.47 | 0.12 | 95 | 1005.5 |
| 20260507055005 | 50 | 277 | 0.0 | 0.9 | 0.01 | 0.47 | 0.12 | 94 | 1005.6 |
| 20260507054505 | 50 | 277 | 0.0 | 0.9 | 0.01 | 0.47 | 0.12 | 94 | 1005.4 |
| 20260507054004 | 50 | 277 | 0.0 | 0.9 | 0.02 | 0.47 | 0.12 | 94 | 1005.6 |
| 20260507053504 | 50 | 277 | 0.0 | 0.9 | 0.02 | 0.47 | 0.12 | 94 | 1005.7 |
| 20260507053011 | 50 | 277 | 0.0 | 0.9 | 0.02 | 0.47 | 0.12 | 94 | 1005.5 |
| 20260507052504 | 50 | 277 | 0.0 | 0.9 | 0.03 | 0.47 | 0.12 | 94 | 1005.5 |
| 20260507052008 | 50 | 277 | 0.0 | 0.9 | 0.04 | 0.46 | 0.11 | 94 | 1005.5 |
| 20260507051519 | 50 | 277 | 0.0 | 0.9 | 0.08 | 0.46 | 0.11 | 94 | 1005.4 |
| 20260507051009 | 51 | 277 | 0.0 | 0.9 | 0.10 | 0.46 | 0.11 | 94 | 1005.5 |
| 20260507050507 | 51 | 314 | 0.0 | 0.9 | 0.11 | 0.46 | 0.11 | 94 | 1005.4 |
| 20260507050030 | 51 | 316 | 0.0 | 1.7 | 0.11 | 0.46 | 0.11 | 95 | 1005.4 |
| 20260507045509 | 51 | 332 | 0.0 | 1.7 | 0.11 | 0.46 | 0.11 | 95 | 1005.4 |
| 20260507045009 | 52 | 219 | 0.0 | 1.7 | 0.11 | 0.46 | 0.11 | 95 | 1005.5 |
| 20260507044538 | 52 | 309 | 0.0 | 1.7 | 0.11 | 0.46 | 0.11 | 95 | 1005.4 |
| 20260507044004 | 52 | 319 | 0.9 | 1.7 | 0.10 | 0.45 | 0.10 | 95 | 1005.3 |
| 20260507043504 | 52 | 354 | 0.0 | 0.9 | 0.10 | 0.45 | 0.10 | 95 | 1005.3 |
| 20260507043009 | 52 | 316 | 0.0 | 1.7 | 0.10 | 0.45 | 0.10 | 95 | 1005.4 |
| 20260507042507 | 52 | 316 | 0.0 | 2.6 | 0.09 | 0.44 | 0.09 | 95 | 1005.3 |
| 20260507042006 | 52 | 11 | 0.0 | 2.6 | 0.08 | 0.42 | 0.07 | 95 | 1005.4 |
| 20260507041515 | 52 | 309 | 0.9 | 1.7 | 0.04 | 0.38 | 0.03 | 95 | 1005.7 |
| 20260507041008 | 52 | 253 | 0.9 | 0.9 | 0.02 | 0.36 | 0.01 | 95 | 1005.5 |
| 20260507040511 | 51 | 345 | 0.0 | 0.9 | 0.01 | 0.35 | 0.00 | 95 | 1005.2 |
| 20260507040019 | 51 | 345 | 0.0 | 1.7 | 0.01 | 0.35 | 0.00 | 95 | 1005.2 |
| 20260507035508 | 51 | 345 | 0.0 | 1.7 | 0.01 | 0.35 | 0.35 | 95 | 1005.1 |
| 20260507035009 | 51 | 201 | 0.0 | 0.0 | 0.01 | 0.35 | 0.35 | 95 | 1004.6 |
| 20260507034522 | 51 | 202 | 0.0 | 0.0 | 0.01 | 0.35 | 0.35 | 95 | 1004.5 |
| 20260507034008 | 51 | 202 | 0.0 | 0.0 | 0.01 | 0.35 | 0.35 | 95 | 1004.6 |